STARLINK-31525

decayed
NORAD ID: 59001 Int'l Des: 2024-036 Owner: SPXS Country: US Constellation: starlink
LEOCIRCULAR
Group

About STARLINK-31525

Description loading...

Altitude History

Altitude vs Time

uPlot chart will show altitude changes over time

Two-Line Element Set

1 59001U 24036D 24153.37778500 .24443532 12350-4 27784-2 0 9994
2 59001 53.1212 188.7691 0006187 16.0258 104.9100 16.36122763 16543
Epoch: Jun 1, 2024 • Age: 11301 hours

Current Status

Position data unavailable
Launch Date Feb 23, 2024
Age 1.5 years
Decay Date Jun 1, 2024
Type internet

Technical Details

Classification Payload
Mass 730.00 kg
Dry Mass 700.00 kg
Total Mass 730.00 kg
Length 0.30 m
Diameter 4.10 m
Span 29.00 m
Shape Box + pan
Manufacturer SPXS
Bus Type Starlink V2M
Phase Status Unknown Transfer Status
Owner/State SPXS/US

Large Constellations

Loading constellations...